Preview of NWS' New Version of Forecast
This preview is not operational and should not be used for support decisions.

Regional Weather Roundup (RWR)

Issued by National Weather Service (NWS)

                            
000
ASUS45 KBOI 240210
RWRID 

IDAHO REGIONAL WEATHER ROUNDUP
NATIONAL WEATHER SERVICE BOISE ID
800 PM MDT THU MAY 23 2019

NOTE: "FAIR" INDICATES FEW OR NO CLOUDS BELOW 12000 FEET
WITH NO SIGNIFICANT WEATHER AND/OR OBSTRUCTIONS TO VISIBILITY

IDZ012-014-240300-
SOUTHWEST IDAHO

  
CITY           SKY/WX    TMP DP  RH WIND       PRES   REMARKS
BOISE          PTSUNNY   63  40  42 S15       29.74S                  
CALDWELL       MOSUNNY   68  41  37 W14       29.73R                  
MOUNTAIN HOME  PTSUNNY   52  47  82 E10       29.77F                  
$$

IDZ016-017-240300-
SOUTHCENTRAL IDAHO

  
CITY           SKY/WX    TMP DP  RH WIND       PRES   REMARKS
BURLEY         LGT RAIN  46  42  86 N6        29.84R                  
JEROME         LGT RAIN  48  42  80 E8        29.86R                  
TWIN FALLS     LGT RAIN  47  43  86 E7        29.86R                  
$$

IDZ019>023-240300-
SOUTHEAST IDAHO

  
CITY           SKY/WX    TMP DP  RH WIND       PRES   REMARKS
IDAHO FALLS    LGT RAIN  46  39  76 W6        29.83R                  
POCATELLO      LGT RAIN  46  42  86 CALM      29.84R                  
REXBURG        CLOUDY    50  39  66 W7        29.79S                  
$$

IDZ006-010-011-018-031-032-240300-
CENTRAL IDAHO MOUNTAINS

  
CITY           SKY/WX    TMP DP  RH WIND       PRES   REMARKS
MCCALL         PTSUNNY   56  29  35 N13       29.81R                  
HAILEY         CLOUDY    45  39  81 SE6       29.87R                  
STANLEY          N/A     51  28  41 VRB6      29.85S                  
SALMON         CLOUDY    58  34  40 E13       29.80S                  
CHALLIS        CLOUDY    54  32  43 N7        29.82S                  
$$

IDZ002-004-006-007-026-240300-
NORTHERN IDAHO

  
CITY           SKY/WX    TMP DP  RH WIND       PRES   REMARKS
LEWISTON       MOSUNNY   73  36  25 W7        29.73F                  
LOWELL           N/A     63  51  65 CALM      29.73S                  
COEUR D'ALENE  MOSUNNY   71  38  29 N5        29.77F                  
MULLAN PASS    MOSUNNY   53  25  33 N5        29.89F                  
$$